Showing default

GLOBALSTAR M092, 38043

Orbit data source: Space-Track

GLOBALSTAR M092, 38043 is a payload satellite owned by Globalstar (US) in LEO that was launched on Wed, 28 Dec 2011 UTC via a SOYUZ-2-1A launch vehicle from the Tyuratam Missile And Space Complex (TTMTR). Payload-class satellites include a variety of spacecraft equipped with specific instruments for various scientific and technological missions. These include communications satellites like Starlink; space stations such as the ISS; scientific satellites like the Hubble; Earth observation satellites from companies like Planet Labs, Umbra, and HawkEye 360; GPS; miniature CubeSats for education and research; and military/defense satellites.

Loading next visibility...
Identifier
38043, 2011-080D
Orbit
LEO
Country
Flag of USUS / GLOB
Related business
Manufacturer
Thales Alenia
Mission
Operational Commercial Communications
Bus & Motor
PRISMA?, LS-400 AOCS?
Mass
715 kg wet, ~500 kg dry
Launch date (UTC)
2011-12-28 (14 years ago)
Launch vehicle
SOYUZ-2-1A
Launch site
Tyuratam Missile And Space Complex (TTMTR)
Object type
Payload
Rocket body
Debris
Shape & HBR
Trap Cyl + 2 Pan, 6.0 m
Radar Cross Section
20.931 m², Large (>1 m²)

Expand to show TLE details & history
Last TLE update: 18 hours ago

TLE from 18 hours ago
0 GLOBALSTAR M092
1 38043U 11080D   26119.45571951 -.00000097  00000-0  37314-4 0  9993
2 38043  52.0082 213.2302 0000456 124.8332 315.8052 12.62266741661899
Epoch: 2026-04-29T10:56Z
TLE epoch observation values (Epoch: 2026-04-29T10:56:14.165Z)
Latitude
51.17736°
Longitude
-93.25995°
Altitude
1,419.455 km
Speed
7.157 km/s
True Right ascension
19h 12m 51s
True Declination
51° 01' 25"
Sunlit
Object was in daylight at epoch
Visualization orbit readout
Latitude
Unknown
Longitude
Unknown
Altitude
Unknown
Speed
Unknown
Apparent Right ascension
Unknown
Apparent Declination
Unknown
Sunlit
N/A
Visualization observer readout
Local Sidereal Time
12:35:34
Azimuth
Unknown
Elevation
Unknown
Doppler factor
Unknown
Orbital elements
Apogee altitude
1,414.349 km
Perigee altitude
1,413.638 km
Semi-major axis
7,792.13 km
Eccentricity
0.00005
Inclination
52.0082°
RAAN
213.2302°
Arg. of periapsis
124.8332°
True anomaly
315.80156°
Mean anomaly
315.8052°
Eccentric anomaly
315.80338°
Mean motion
3.15543 °/min
Orbital period
114.09 mins
BSTAR
0.000037314
Loading maneuver chart data...
Computing Atmospheric mass density...
Loading historical data...
Loading historical data...
Loading historical data...
Loading historical data...
Loading historical data...
Loading historical data...
Loading historical data...

Documentation

Showing up to 5 results
|